Wind_Speed
8 7 6 4 2 1 1 3 5 6 8 9 11 12 12 12 10 10 10 10 10 10 9 9 9 10 10 10 10 10 10 10 10 11 11 11 10 8 6 4 2 3 4
7 6 4 1 1 2 3 4 6 7 8 9 11 12 13 13 12 10 10 10 11 11 10 10 9 9 9 9 9 9 9 9 9 9 10 10 10 8 6 4 2 1 2
5 4 1 1 3 4 5 6 6 7 8 9 10 11 12 12 11 10 11 11 12 12 12 12 11 10 9 9 9 9 9 8 8 8 8 9 9 8 6 4 2 2 3
5 3 2 3 4 4 5 6 7 7 8 9 10 11 10 10 10 10 10 11 12 13 12 12 12 11 11 10 10 10 10 9 8 6 6 7 8 7 6 5 3 2 2
5 4 3 3 4 4 4 5 6 7 9 10 10 10 9 8 8 8 9 11 12 12 12 12 12 11 12 11 11 10 10 10 9 7 5 4 5 5 5 5 4 3 2
5 5 4 4 4 4 4 4 5 7 9 10 10 10 9 7 7 8 9 11 12 13 12 11 11 11 11 12 12 11 10 10 10 9 7 5 5 5 5 5 5 5 4
8 7 6 6 6 6 5 5 6 8 9 10 10 10 10 9 9 9 10 12 13 13 12 11 11 10 11 12 12 12 11 10 10 10 8 7 6 6 6 6 6 7 8
11 10 9 9 9 9 8 8 8 8 9 10 10 11 11 12 12 12 13 14 14 14 12 11 10 9 9 10 11 12 12 11 10 10 10 9 8 7 7 7 7 8 9
11 12 11 11 12 12 11 10 10 9 9 10 11 12 13 14 15 15 16 16 15 15 14 12 11 10 9 9 10 11 12 12 11 10 10 10 11 10 9 8 8 9 9
12 12 13 13 14 14 14 13 11 11 11 11 12 13 15 16 16 17 18 17 17 16 16 15 13 11 10 9 9 10 11 11 11 11 10 11 13 12 12 11 11 11 11
13 13 13 14 15 16 16 15 14 13 13 13 15 16 17 17 17 18 18 18 17 17 17 17 17 15 12 10 9 10 11 12 12 11 10 11 12 13 14 14 13 13 13
13 13 13 15 16 17 17 17 16 16 16 16 17 18 19 19 19 19 19 19 18 17 17 18 19 18 16 13 11 10 11 12 12 12 11 11 11 13 14 15 16 16 15
15 16 15 16 18 19 19 19 19 19 20 21 21 22 22 23 23 22 22 22 21 19 19 18 20 20 19 17 14 13 12 12 12 12 12 13 12 12 13 15 16 17 18
20 21 21 20 21 23 23 23 24 24 25 25 26 27 27 28 28 27 26 25 24 23 22 20 20 21 21 21 20 17 16 14 13 13 13 14 15 14 14 14 15 17 18
24 26 26 25 25 26 27 28 28 29 29 30 31 31 32 32 32 31 30 29 28 27 26 24 23 23 23 24 24 23 20 19 17 17 16 16 17 17 17 17 16 17 18
29 30 30 29 29 30 31 32 32 32 33 34 34 34 34 36 36 36 34 33 33 32 31 30 29 27 26 26 27 27 26 24 22 21 21 20 20 20 21 21 20 20 20
35 35 34 34 35 34 35 35 36 36 37 37 38 38 37 37 39 39 39 38 38 37 36 35 34 32 31 30 30 31 30 29 27 25 25 24 23 23 24 25 25 24 23
40 39 39 40 40 40 40 40 39 40 41 41 41 41 42 41 41 42 42 42 41 41 40 39 38 36 36 35 34 34 34 33 31 30 29 28 28 27 26 28 28 28 27
44 45 43 44 46 45 44 44 43 42 43 44 44 44 45 45 44 45 46 46 46 45 44 44 43 41 41 41 40 39 38 37 35 34 33 31 30 29 29 28 29 29 30
47 47 47 46 47 47 45 44 43 43 44 45 46 47 48 49 49 48 48 49 49 48 47 48 47 46 45 44 45 44 42 41 40 37 36 35 34 32 31 30 28 28 30
44 44 44 44 44 43 42 41 42 43 45 46 47 49 50 51 53 52 52 51 49 49 49 50 50 49 49 49 49 47 45 44 43 41 38 37 36 35 32 31 30 28 29
39 38 38 39 40 40 40 40 41 42 44 46 48 50 51 53 55 54 53 52 50 49 48 49 49 50 51 51 51 50 48 46 45 43 40 38 37 36 35 34 32 30 29
40 40 40 40 41 42 43 43 44 44 45 46 48 50 52 54 54 55 54 53 53 52 50 50 51 52 51 51 51 50 47 46 46 43 42 40 37 36 36 35 33 30 29
41 42 43 44 45 46 47 48 49 49 49 49 51 52 53 54 55 56 56 55 54 54 53 52 52 51 50 50 50 49 47 46 44 44 42 41 37 36 36 35 32 29 28
38 40 41 42 43 45 47 49 50 51 52 52 52 53 53 53 54 54 54 54 53 53 53 52 50 49 49 48 47 46 45 44 44 43 41 40 37 35 34 32 30 28 26
34 35 35 36 37 40 42 45 47 48 49 50 51 52 52 52 52 51 50 50 50 50 50 49 48 47 45 43 43 42 42 43 44 43 40 38 36 34 32 30 29 27 25
Wind_Direction
146 151 155 153 142 115 8 348 341 344 348 354 1 7 11 13 15 21 24 23 20 18 16 16 16 15 15 16 18 20 20 21 22 23 22 23 26 31 38 44 54 65 49
150 155 163 171 349 344 343 340 335 334 337 344 351 357 1 5 7 13 19 19 16 12 8 4 0 358 358 358 359 3 8 13 15 17 18 17 18 21 24 29 25 356 322
159 161 171 323 337 340 344 349 348 346 346 348 351 353 358 3 8 12 17 19 15 11 8 5 359 351 343 339 339 342 346 352 1 6 8 7 10 14 19 22 15 335 307
187 199 249 315 328 335 347 0 7 6 3 357 353 351 354 1 9 16 17 17 13 9 7 5 3 357 348 337 328 325 329 335 341 350 357 359 357 5 16 23 24 7 325
217 233 261 294 309 321 340 359 9 8 1 355 350 346 344 352 360 4 4 4 2 0 359 359 359 359 355 347 335 324 319 320 327 336 341 349 336 344 356 8 15 20 15
243 252 262 276 286 297 316 334 343 346 346 344 341 336 330 332 338 341 345 347 350 351 353 355 356 357 356 353 345 332 320 313 312 319 323 323 317 325 328 331 334 337 335
258 260 264 267 270 275 286 301 312 320 326 328 327 324 317 313 317 321 326 332 335 337 339 344 349 350 351 351 349 341 328 315 306 304 308 309 299 302 307 309 313 316 315
267 264 265 265 264 265 271 281 292 301 308 313 312 309 305 303 304 308 312 318 321 321 322 326 334 339 343 346 347 344 336 323 309 298 297 301 296 293 290 292 298 308 321
269 267 266 266 266 265 268 272 280 287 291 297 300 299 298 297 299 301 304 308 311 309 306 308 315 322 328 334 339 342 341 335 323 307 297 294 292 293 288 284 285 292 303
274 273 270 268 268 268 268 268 273 279 283 286 288 290 292 294 297 300 303 304 305 302 296 293 297 302 309 317 326 333 339 340 337 326 312 296 289 289 288 287 283 283 288
281 278 276 275 275 273 269 268 271 275 279 282 284 287 290 293 296 299 301 301 301 297 291 285 285 286 290 297 307 317 324 331 335 336 328 307 296 289 286 286 285 284 284
290 290 287 286 284 281 276 273 273 276 279 283 287 290 292 294 295 296 297 297 297 295 289 283 278 278 279 282 288 295 305 316 322 328 327 315 305 297 291 287 284 284 285
292 293 294 293 291 289 285 280 280 280 282 285 288 291 294 295 295 294 294 294 294 293 290 285 279 275 274 273 275 279 288 298 309 317 317 315 312 304 297 291 286 284 284
289 290 290 290 290 290 290 287 286 286 286 288 292 294 295 296 296 295 294 292 290 290 289 287 281 278 274 269 269 270 274 282 290 300 308 308 308 304 300 296 291 287 284
283 284 285 285 285 286 288 289 288 288 287 289 292 294 296 297 297 297 297 296 293 289 286 286 283 279 274 270 268 268 271 274 281 288 294 298 301 299 296 292 289 287 284
279 280 282 283 283 284 285 287 286 286 285 286 288 290 292 294 295 296 296 297 297 295 292 289 286 282 278 273 270 268 269 272 274 280 285 289 291 292 290 287 285 283 281
279 280 282 283 284 285 285 285 285 285 285 286 287 288 289 290 292 293 295 296 296 296 296 294 290 286 281 276 272 269 268 269 272 275 280 284 286 285 285 284 281 280 279
280 279 281 283 283 285 286 285 285 285 285 285 286 287 288 288 289 290 292 293 294 294 294 292 290 286 282 277 273 270 267 267 270 274 279 282 284 285 283 281 279 278 278
282 281 281 282 283 283 283 284 283 283 283 283 284 285 286 287 287 288 289 290 290 291 291 291 289 286 283 279 274 269 266 266 266 270 275 280 283 284 283 280 278 277 277
281 281 281 281 280 280 279 279 279 279 279 279 280 282 284 286 286 284 285 287 287 288 288 288 290 288 285 282 278 273 266 263 262 265 271 277 281 283 283 281 278 276 276
280 281 281 280 279 278 277 276 275 275 276 276 277 279 281 282 283 283 285 285 286 287 288 288 289 289 289 285 281 276 270 266 263 264 269 275 278 282 283 282 280 277 274
285 284 282 281 281 280 279 277 276 274 275 276 277 278 279 279 281 282 284 285 285 287 289 290 289 290 289 285 282 278 272 268 265 265 268 271 274 279 282 283 283 280 275
285 284 284 283 282 282 281 280 279 277 277 276 276 277 278 280 281 283 284 285 287 288 289 288 288 289 288 285 282 278 273 267 263 264 268 269 271 275 279 282 283 281 278
283 282 281 280 280 280 280 280 280 279 278 278 277 277 278 279 281 282 285 285 286 286 286 286 286 286 286 283 280 276 271 264 260 261 266 268 269 271 276 279 279 278 276
285 283 281 280 279 278 278 278 278 279 279 278 278 278 278 279 280 281 283 283 284 284 284 284 284 283 284 282 278 272 265 259 257 257 260 265 268 270 273 275 275 275 274
286 285 285 284 283 281 279 279 279 279 279 279 279 280 280 280 280 281 281 283 283 284 284 283 282 280 283 279 273 266 258 255 254 256 258 260 266 270 271 271 271 272 272
Height
5924 5925 5925 5926 5926 5926 5927 5927 5926 5925 5924 5923 5922 5921 5920 5919 5917 5916 5915 5913 5912 5911 5910 5909 5909 5908 5907 5906 5905 5904 5903 5902 5901 5900 5900 5899 5899 5898 5898 5898 5899 5899 5899
5926 5926 5927 5928 5928 5928 5928 5928 5927 5927 5926 5925 5924 5922 5921 5920 5918 5917 5916 5915 5913 5912 5911 5910 5909 5908 5908 5907 5906 5905 5904 5904 5903 5902 5901 5901 5900 5899 5899 5899 5899 5899 5899
5927 5927 5928 5929 5929 5929 5929 5928 5928 5927 5927 5926 5924 5923 5922 5920 5919 5918 5917 5916 5915 5913 5911 5910 5909 5908 5908 5908 5907 5906 5905 5904 5904 5903 5902 5902 5901 5901 5900 5899 5899 5899 5899
5927 5928 5928 5929 5929 5929 5929 5928 5928 5927 5927 5926 5925 5923 5922 5921 5920 5919 5918 5917 5915 5914 5912 5911 5909 5908 5907 5907 5907 5906 5906 5905 5904 5904 5903 5903 5902 5902 5901 5900 5900 5899 5899
5928 5928 5928 5928 5929 5929 5928 5928 5928 5927 5926 5925 5924 5923 5922 5921 5920 5919 5918 5916 5915 5914 5913 5911 5910 5908 5907 5906 5906 5906 5905 5905 5904 5904 5904 5904 5903 5902 5902 5902 5901 5900 5900
5929 5928 5928 5928 5928 5928 5928 5927 5927 5927 5926 5925 5924 5923 5922 5921 5920 5919 5917 5916 5915 5914 5913 5911 5910 5909 5907 5906 5905 5905 5904 5904 5904 5904 5903 5903 5903 5902 5902 5902 5902 5901 5901
5929 5928 5928 5928 5927 5927 5927 5926 5926 5926 5925 5924 5924 5923 5922 5921 5920 5919 5917 5916 5915 5913 5912 5911 5910 5909 5908 5906 5905 5904 5903 5903 5903 5903 5903 5903 5902 5902 5902 5902 5901 5901 5901
5929 5928 5927 5927 5926 5926 5925 5925 5925 5924 5924 5923 5923 5922 5921 5920 5919 5918 5917 5915 5914 5913 5912 5911 5909 5908 5907 5906 5905 5904 5902 5901 5901 5901 5902 5902 5901 5901 5901 5901 5901 5901 5900
5928 5927 5927 5926 5925 5925 5924 5923 5923 5922 5922 5921 5921 5920 5919 5919 5918 5916 5915 5914 5913 5912 5911 5910 5909 5908 5906 5905 5904 5903 5902 5901 5900 5899 5900 5900 5900 5900 5899 5899 5899 5899 5899
5926 5926 5925 5925 5924 5923 5923 5922 5921 5921 5920 5919 5919 5918 5917 5916 5915 5914 5913 5912 5911 5910 5909 5908 5908 5907 5906 5905 5903 5902 5901 5900 5899 5898 5898 5898 5898 5898 5898 5897 5898 5898 5898
5924 5924 5924 5924 5923 5922 5921 5920 5919 5918 5918 5917 5917 5916 5915 5914 5913 5912 5910 5909 5909 5908 5907 5906 5906 5905 5904 5903 5902 5901 5900 5899 5898 5897 5896 5896 5895 5895 5895 5895 5895 5895 5895
5922 5922 5922 5922 5921 5920 5919 5918 5917 5916 5916 5915 5914 5913 5912 5912 5911 5910 5908 5907 5906 5905 5904 5903 5903 5903 5902 5902 5901 5899 5898 5897 5896 5895 5895 5893 5892 5892 5892 5892 5892 5892 5892
5920 5919 5920 5920 5919 5918 5917 5916 5915 5914 5913 5912 5911 5910 5910 5909 5908 5907 5906 5904 5902 5902 5901 5900 5900 5899 5899 5899 5898 5897 5896 5895 5894 5894 5893 5891 5890 5889 5889 5888 5888 5889 5889
5917 5916 5916 5916 5915 5914 5914 5913 5912 5911 5910 5909 5908 5907 5906 5905 5904 5903 5902 5901 5900 5899 5898 5897 5896 5896 5895 5895 5895 5895 5894 5893 5892 5891 5890 5889 5888 5887 5886 5885 5885 5884 5885
5914 5913 5912 5912 5911 5910 5909 5908 5908 5907 5906 5905 5904 5903 5901 5900 5899 5898 5897 5896 5895 5895 5894 5893 5892 5892 5892 5891 5891 5891 5891 5890 5889 5887 5887 5886 5884 5883 5882 5881 5880 5880 5880
5909 5908 5907 5907 5906 5905 5904 5902 5902 5901 5900 5899 5898 5897 5896 5895 5893 5893 5892 5891 5890 5889 5889 5888 5888 5888 5887 5887 5886 5886 5886 5885 5885 5884 5882 5882 5881 5880 5879 5878 5876 5875 5875
5903 5902 5902 5900 5900 5899 5897 5896 5895 5894 5893 5892 5891 5890 5890 5889 5888 5886 5886 5885 5885 5884 5883 5883 5882 5882 5882 5881 5881 5880 5880 5880 5879 5878 5878 5877 5876 5875 5874 5873 5872 5870 5870
5895 5896 5895 5893 5892 5891 5890 5889 5887 5887 5885 5885 5884 5883 5882 5881 5881 5879 5878 5878 5877 5877 5877 5876 5875 5874 5874 5874 5874 5874 5873 5873 5873 5872 5872 5871 5870 5869 5869 5867 5866 5865 5864
5888 5887 5887 5886 5884 5883 5882 5880 5879 5878 5877 5876 5875 5874 5873 5873 5873 5872 5870 5870 5869 5869 5868 5867 5867 5866 5865 5864 5864 5865 5865 5865 5865 5865 5865 5864 5864 5862 5862 5861 5860 5859 5858
5878 5878 5877 5877 5874 5873 5872 5871 5870 5870 5868 5868 5867 5866 5865 5864 5863 5863 5862 5861 5860 5859 5859 5858 5857 5856 5855 5854 5853 5854 5855 5856 5856 5856 5857 5857 5856 5855 5854 5854 5853 5853 5851
5868 5868 5868 5866 5865 5863 5862 5862 5861 5860 5859 5858 5858 5857 5856 5855 5853 5852 5853 5852 5850 5849 5849 5848 5847 5845 5844 5842 5841 5841 5843 5845 5846 5847 5848 5848 5847 5846 5846 5845 5845 5845 5844
5859 5858 5858 5857 5855 5854 5853 5852 5851 5850 5850 5849 5848 5847 5847 5846 5844 5842 5842 5841 5840 5839 5838 5838 5836 5834 5833 5830 5828 5828 5830 5833 5834 5836 5838 5839 5839 5838 5837 5837 5836 5836 5836
5850 5849 5848 5847 5846 5844 5842 5841 5840 5839 5839 5839 5838 5837 5836 5835 5833 5832 5831 5830 5829 5828 5828 5827 5825 5823 5821 5819 5816 5815 5817 5819 5821 5825 5826 5828 5830 5830 5829 5829 5828 5828 5827
5841 5839 5838 5837 5836 5834 5832 5830 5829 5828 5827 5828 5826 5825 5825 5824 5823 5821 5820 5819 5818 5817 5816 5815 5813 5811 5808 5806 5805 5804 5805 5807 5810 5814 5816 5817 5820 5821 5821 5821 5820 5820 5819
5831 5829 5828 5828 5826 5824 5822 5820 5818 5816 5815 5815 5814 5813 5813 5812 5812 5810 5809 5808 5807 5806 5804 5803 5802 5799 5796 5794 5793 5793 5794 5796 5799 5802 5806 5807 5810 5811 5812 5812 5812 5812 5812
5823 5821 5820 5818 5817 5815 5813 5810 5808 5806 5804 5803 5802 5801 5800 5800 5799 5799 5797 5796 5795 5794 5792 5791 5789 5788 5785 5783 5783 5783 5784 5786 5789 5792 5796 5798 5800 5802 5803 5804 5804 5805 5805